{"data":{"norad_id":87845,"intl_designator":"","name":"UNKNOWN","alt_names":[],"object_type":"UNKNOWN","status":"UNKNOWN","operator":null,"country":null,"launch_date":null,"launch_site_code":null,"launch_vehicle":null,"mission":null,"orbit_class":"UNKNOWN","rcs_meters":null,"size_class":null,"mass_kg":null,"dimensions":null,"purposes":[],"wikipedia_slug":null,"has_3d_model":false,"image_url":null,"decayed_at":null,"tle_current":{"epoch":"2026-09-18T13:06:34.154496Z","epoch_age_seconds":183539,"freshness":"STALE","line1":"1 87845U          26261.54622864 -.00000146  00000+0 -20370-3 0  9993","line2":"2 87845  98.8645 169.6552 0576558 329.2617  27.5864 12.89882903601272","mean_motion":12.89882903,"eccentricity":0.0576558,"inclination_deg":98.8645,"raan_deg":169.6552,"arg_perigee_deg":329.2617,"mean_anomaly_deg":27.5864,"bstar":-0.0002037,"rev_number":60127,"period_min":111.6380406819,"perigee_km":859.18472426069,"apogee_km":1744.7922843637,"semimajor_km":7680.1255043122,"source":"CELESTRAK","updated_at":"2026-09-20T09:00:32.480245Z"}}}